Location: Shandelee
(41.8790°N, 74.8713°W)
Time: 04:28:54
(UTC+00:00)

USA 308 - Pass Details

Date: 29 October 2020
Orbit: 571 x 578 km, 54.0° (Epoch: 23 November)

Event Time Altitude Azimuth Distance (km) Brightness Sun altitude
Rises 23:32:36 0° 310° (NW) 2,785 7.2 -18.3°
Reaches altitude 10° 23:34:53 10° 314° (NW) 1,883 6.1 -18.8°
Maximum altitude 23:39:08 62° 36° (NE) 645 2.9 -19.6°
Enters shadow 23:39:53 52° 83° (E) 716 2.9 -19.7°
